Location: Unspecified
(0.0000°N, 0.0000°E)
Time: 12:41:43
(UTC-04:00)

Hubble Space Telescope - Pass Details

Date: 28 September 2021
Orbit: 535 x 539 km, 28.5° (Epoch: 28 October)

Event Time Altitude Azimuth Distance (km) Brightness Sun altitude
Rises 01:21:30 0° 223° (SW) 2,676 3.9 -7.3°
Reaches altitude 10° 01:24:00 10° 211° (SSW) 1,783 3.2 -6.7°
Maximum altitude 01:27:34 28° 151° (SSE) 1,018 2.6 -5.8°
Drops below altitude 10° 01:31:08 10° 91° (E) 1,778 5.4 -4.9°
Sets 01:33:37 0° 79° (E) 2,665 6.3 -4.3°
